Regional Weather Roundup
Issued by NWS Cleveland, OH

Home | Current Version | Previous Version | Graphics & Text | Print | Product List | Glossary On
Versions: 1 2 3 4 5 6 7 8 9 10 11 12 13 14 15 16 17 18 19 20 21 22 23 24 25 26 27 28 29 30 31 32 33 34 35 36 37 38 39 40 41 42 43 44 45 46 47 48 49 50
000
ASUS41 KCLE 030202
RWRCLE
OHIO REGIONAL WEATHER ROUNDUP
NATIONAL WEATHER SERVICE CLEVELAND, OH
1000 PM EDT THU JUL 02 2015

NOTE: "FAIR" INDICATES FEW OR NO CLOUDS BELOW 12,000 FEET WITH NO
SIGNIFICANT WEATHER AND/OR OBSTRUCTIONS TO VISIBILITY.

OHZ001>008-015>018-024>027-034-035-043-044-030300-
   NORTHWEST OHIO

CITY           SKY/WX    TMP DP  RH WIND       PRES   REMARKS
DEFIANCE       CLEAR     65  55  70 E3        29.97S
FINDLAY        CLEAR     66  54  65 NE7       29.96S
TOLEDO EXPRESS CLEAR     60  54  80 E3        29.98R
TOLEDO EXEC    CLEAR     65  56  72 CALM      29.99R
LIMA           PTCLDY    65  55  70 NE9       29.96S
$$

OHZ009>014-019>023-028>033-038-089-030300-
   NORTHEAST OHIO

CITY           SKY/WX    TMP DP  RH WIND       PRES   REMARKS
CLE-HOPKINS    PTCLDY    63  54  72 N6        30.00R
CLE-LAKEFRONT  CLEAR     66  54  65 E3        29.97R
CUY CO. ARPT   CLEAR     63  55  77 NE8       29.99R
LORAIN-ELYRIA  CLEAR     60  55  83 CALM      29.99R
ASHTABULA      CLEAR     57  54  89 CALM      30.00R
AKRON-CANTON   PTCLDY    63  55  75 NE7       29.98R
WOOSTER        CLEAR     60  54  80 N6        29.98R
MANSFIELD      PTCLDY    62  52  69 NE7       29.98S
YOUNGSTOWN     PTCLDY    60  52  74 N7        29.98R
$$

OHZ042-051>053-060>062-070>072-077>081-030300-
  SOUTHWEST OHIO

CITY           SKY/WX    TMP DP  RH WIND       PRES   REMARKS
CINC-COVINGTON LGT RAIN  69  66  90 SE9       29.90R
CINC-LUNKEN    CLOUDY    69  69 100 CALM      29.90R FOG
HAMILTON       CLOUDY    73  65  75 E8        29.91R
DAYTON         MOCLDY    68  62  81 NE7       29.94R
WRIGHT-PAT AFB PTCLDY    68  61  79 E5        29.92R
DAYTON GENERAL CLOUDY    70  62  76 E6        29.92R
WILMINGTON     MOCLDY    67  62  84 NE6       29.92R
$$

OHZ036-037-039>041-045>050-054>059-063>069-073>076-082>088-030300-
  CENTRAL AND SOUTHEAST OHIO

CITY           SKY/WX    TMP DP  RH WIND       PRES   REMARKS
COLUMBUS       MOCLDY    67  61  81 NE5       29.93S
OSU AIRPORT    CLEAR     66  60  81 N7        29.94S
BOLTON FIELD   NOT AVBL
RICKENBACK AFB NOT AVBL
NEWARK         MOCLDY    65  61  87 N3        29.93S
MARION         PTCLDY    62  55  77 N7        29.97R
LANCASTER      MOCLDY    68  63  84 CALM      29.93S
ZANESVILLE     NOT AVBL
NEW PHILLY     CLEAR     65  59  81 CALM      29.96R
$$


USA.gov is the U.S. government's official web portal to all federal, state and local government web resources and services.